Location: Arborea
(39.7744°N, 8.5819°E)
Time: 11:32:42
(UTC+00:00)

Cosmos 332 Rocket - Pass Details

Date: 02 June 2022
Orbit: 681 x 703 km, 74.0° (Epoch: 03 July)

Event Time Altitude Azimuth Distance (km) Brightness Sun altitude
Exits shadow 23:12:28 63° 355° (N) 759 4.1 -27.9°
Drops below altitude 10° 23:16:33 10° 16° (NNE) 2,130 7.2 -27.9°
Sets 23:18:53 0° 18° (NNE) 3,050 8.2 -27.9°
